Location: Bukit Lungun
(2.6833°N, 113.9667°E)
Time: 10:44:43
(UTC+00:00)

CZ-2C R/B - Pass Details

Date: 02 March 2021
Orbit: 389 x 583 km, 35.0° (Epoch: 20 April)

Event Time Altitude Azimuth Distance (km) Brightness Sun altitude
Exits shadow 20:53:28 13° 179° (S) 1,661 3.8 -25.8°
Maximum altitude 20:55:42 19° 143° (SE) 1,404 3.8 -25.2°
Drops below altitude 10° 20:58:46 10° 98° (E) 1,885 5.1 -24.5°
Sets 21:01:39 0° 80° (E) 2,788 6.2 -23.8°
